Regional Weather Roundup
Issued by NWS Sioux Falls, SD

Home | Current Version | Previous Version | Text Only | Print | Product List | Glossary On
Versions: 1 2 3 4 5 6 7 8 9 10 11 12 13 14 15 16 17 18 19 20 21 22 23 24 25 26 27 28 29 30 31 32 33 34 35 36 37 38 39 40 41 42 43 44 45 46 47 48 49 50
000
ASUS43 KFSD 230002
RWRFSD

WEATHER ROUNDUP FOR SE SOUTH DAKOTA/SW MINNESOTA/NW IOWA
NATIONAL WEATHER SERVICE SIOUX FALLS SD
700 PM CDT MON MAY 22 2017

NOTE: "FAIR" INDICATES FEW OR NO CLOUDS BELOW 12,000 FEET WITH NO
SIGNIFICANT WEATHER AND OR OBSTRUCTIONS TO VISIBILITY.


SDZ038>040-050-052>070-230100-
SOUTHEAST SOUTH DAKOTA

CITY           SKY/WX    TMP DP  RH WIND       PRES   REMARKS
BROOKINGS      LGT RAIN  49  47  93 W5        29.89S
CHAMBERLAIN    NOT AVBL
HURON          CLOUDY    57  47  69 W12       29.91S
6HR MIN TEMP:  50; 6HR MAX TEMP:  58; 6HR PCP:  0.07;

MADISON        LGT RAIN  48  48 100 N7        29.90S
MITCHELL       CLOUDY    57  43  59 N13       29.93S
6HR MIN TEMP:  55; 6HR MAX TEMP:  61; 6HR PCP: TRACE;

SIOUX FALLS    CLOUDY    54  47  77 N16G24    29.88R
6HR MIN TEMP:  54; 6HR MAX TEMP:  65;

WINNER         FAIR      60  43  53 N14G20    29.98S
YANKTON        MOSUNNY   58  48  69 N20       29.89R
$$

MNZ071-072-080-081-089-090-097-098-230100-
SOUTHWEST MINNESOTA

CITY           SKY/WX    TMP DP  RH WIND       PRES   REMARKS
FAIRMONT       LGT RAIN  55  53  93 NE8       29.82S FOG
JACKSON        CLOUDY    54  50  87 NE10      29.84S
MARSHALL       LGT RAIN  55  49  80 NW9       29.86R
6HR MIN TEMP:  55; 6HR MAX TEMP:  61; 6HR PCP:  0.01;

MONTEVIDEO     PTSUNNY   61  45  55 N14       29.84S
PIPESTONE      LGT RAIN  52  43  71 N9G16     29.88S
REDWOOD FALLS  LGT RAIN  57  46  66 NW3       29.83S
TRACY          RAIN      54  51  88 SW3       29.87R
WINDOM         LGT RAIN  54  52  94 NE6       29.85S
WORTHINGTON    PTSUNNY   57  50  77 NW17      29.85R
$$

IAZ001>003-012>014-020>022-031-032-NEZ013-014-SDZ071-230100-
NORTHWEST IOWA

CITY           SKY/WX    TMP DP  RH WIND       PRES   REMARKS
CHEROKEE       SUNNY     62  50  66 NW12G17   29.84R
DENISON        CLOUDY    64  48  55 NW9       29.86R
ESTHERVILLE    CLOUDY    55  51  86 W5        29.82F
LE MARS        MOSUNNY   63  48  59 NW14G22   29.85S
ORANGE CITY    MOSUNNY   61  50  67 NW18G24   29.84S
SHELDON        MOSUNNY   63  46  55 W18G26      N/A
SIOUX CITY     SUNNY     64  49  57 NW14      29.85R
6HR MIN TEMP:  61; 6HR MAX TEMP:  73; 6HR PCP: TRACE;

SPENCER        CLOUDY    61  52  72 NW10      29.82F
6HR MIN TEMP:  54; 6HR MAX TEMP:  71; 6HR PCP:  0.18;

STORM LAKE     MOSUNNY   61  48  63 NW16G22   29.83R
$$

ABBREVIATIONS USED IN REMARKS
   TC - TEMPERATURE IN CELSIUS
  WCI - WIND CHILL INDEX
   HX - HEAT INDEX
  VSB - VISIBILITY





USA.gov is the U.S. government's official web portal to all federal, state and local government web resources and services.